BEIDOU 17 (C31)

Last updated on Jan. 17, 2020, 4:32 a.m. UTC

1 40549U 15019A   20016.81733102 -.00000188  00000-0  00000+0 0  9999
2 40549  53.2794 322.9595 0035520 194.8472 348.0833  1.00264643 17585
UTC
Height (km)
Latitude
Longitude
Inclination
Orbital Period
UTC large
Height (km)
Speed (km/s)
/
Latitude / Longitude
Inclination (degrees)
Orbital Period (minutes)
Azimuth
Elevation
Range (km)
Doppler Factor
iOS Compass Heading
iOS Angle

Next 30 passes for location: Hong Kong

Rise time Rise Azimuth (degrees) Set time Set Azimuth (degrees) Duration Max altitude (degrees)

No matching passes for this satellites